GW2437 Weather Reports


time (UTC)temp
C
wind
direction
speed
KPH
gust
KPH
rain 1hr
cm
rain 24hr
cm
rain mn
cm
humidity
%
barometer
mb
20260506110455 23 81 0.0 0.0 0.00 0.00 0.00 99 1009.6
20260506105951 23 71 0.0 0.0 0.00 0.00 0.00 99 1009.6
20260506105448 24 154 3.2 4.8 0.00 0.00 0.00 99 1009.6
20260506104945 24 84 0.0 1.6 0.00 0.00 0.00 99 1009.5
20260506104443 24 110 0.0 4.8 0.00 0.00 0.00 99 1009.4
20260506103941 24 79 0.0 1.6 0.00 0.00 0.00 99 1009.4
20260506103438 24 71 1.6 1.6 0.00 0.00 0.00 99 1009.5
20260506102935 24 102 1.6 4.8 0.00 0.00 0.00 99 1009.4
20260506102433 24 93 0.0 4.8 0.00 0.00 0.00 99 1009.5
20260506101930 24 70 0.0 3.2 0.00 0.00 0.00 99 1009.4
20260506101426 24 189 1.6 1.6 0.00 0.00 0.00 99 1009.4
20260506100924 24 133 3.2 3.2 0.00 0.00 0.00 99 1009.4
20260506100422 24 72 4.8 4.8 0.00 0.00 0.00 99 1009.3
20260506095920 24 89 0.0 3.2 0.00 0.00 0.00 99 1009.3
20260506095418 24 49 0.0 4.8 0.00 0.00 0.00 99 1009.3
20260506094914 24 75 1.6 3.2 0.00 0.00 0.00 99 1009.4
20260506094413 24 78 3.2 4.8 0.00 0.00 0.00 99 1009.4
20260506093910 24 67 8.0 11.3 0.00 0.00 0.00 99 1009.3
20260506093407 24 73 0.0 3.2 0.00 0.00 0.00 99 1009.5
20260506092905 24 61 1.6 3.2 0.00 0.00 0.00 99 1009.4
20260506092403 24 82 0.0 1.6 0.00 0.00 0.00 99 1009.4
20260506091859 24 83 0.0 1.6 0.00 0.00 0.00 99 1009.4
20260506091357 24 86 0.0 0.0 0.00 0.00 0.00 99 1009.4
20260506090854 24 85 0.0 3.2 0.00 0.00 0.00 99 1009.4
20260506090352 24 84 0.0 1.6 0.00 0.00 0.00 99 1009.5
20260506085848 23 71 0.0 0.0 0.00 0.00 0.00 99 1009.7
20260506085345 24 65 0.0 1.6 0.00 0.00 0.00 99 1009.6
20260506084841 24 71 0.0 1.6 0.00 0.00 0.00 99 1009.4
20260506084338 24 104 1.6 3.2 0.00 0.00 0.00 99 1009.8
20260506083835 24 68 0.0 1.6 0.00 0.00 0.00 99 1009.7
20260506083332 24 117 0.0 3.2 0.00 0.00 0.00 99 1009.7
20260506082830 24 91 1.6 3.2 0.00 0.00 0.00 99 1009.7
20260506082326 24 95 0.0 1.6 0.00 0.00 0.00 99 1009.7
20260506081822 24 150 0.0 1.6 0.00 0.00 0.00 99 1009.7
20260506081320 24 104 1.6 3.2 0.00 0.00 0.00 99 1009.9
20260506080818 24 116 0.0 4.8 0.00 0.00 0.00 99 1009.7
20260506080314 24 78 0.0 3.2 0.00 0.00 0.00 99 1010.0
20260506073258 24 352 3.2 3.2 0.00 0.00 0.00 99 1010.1
20260506072755 24 65 0.0 1.6 0.00 0.00 0.00 99 1010.2
20260506072252 24 87 1.6 4.8 0.00 0.00 0.00 99 1010.3
20260506071750 24 115 1.6 4.8 0.00 0.00 0.00 99 1010.1
20260506071248 24 84 0.0 0.0 0.00 0.00 0.00 99 1010.2
20260506070744 24 173 4.8 8.0 0.00 0.00 0.00 99 1010.1
20260506070241 24 57 1.6 9.7 0.00 0.00 0.00 99 1010.2
20260506062218 24 94 0.0 3.2 0.00 0.00 0.00 99 1010.2
20260506061714 24 355 1.6 4.8 0.00 0.00 0.00 99 1010.2
20260506061212 24 81 3.2 4.8 0.00 0.00 0.00 99 1010.0
20260506060711 24 72 6.4 9.7 0.00 0.00 0.00 99 1010.0
20260506060207 24 221 3.2 9.7 0.00 0.00 0.00 99 1010.0
20260506051139 24 346 0.0 8.0 0.00 0.00 0.00 99 1010.2
20260506050638 24 185 3.2 4.8 0.00 0.00 0.00 99 1010.2
20260506050134 24 204 1.6 4.8 0.00 0.00 0.00 99 1010.2
20260506045127 24 162 3.2 8.0 0.00 0.00 0.00 98 1010.3
20260506044625 24 205 3.2 4.8 0.00 0.00 0.00 98 1010.3
20260506044122 24 185 1.6 9.7 0.00 0.00 0.00 98 1010.5
20260506043619 24 92 1.6 8.0 0.00 0.00 0.00 98 1010.4
20260506043117 24 113 1.6 4.8 0.00 0.00 0.00 98 1010.2
20260506042616 24 110 3.2 8.0 0.00 0.00 0.00 98 1010.3
20260506042114 24 93 0.0 1.6 0.00 0.00 0.00 98 1010.5
20260506041612 24 144 3.2 4.8 0.00 0.00 0.00 98 1010.4
20260506041108 24 188 3.2 3.2 0.00 0.00 0.00 98 1010.4
20260506040606 24 168 6.4 11.3 0.00 0.00 0.00 98 1010.2
20260506035559 24 63 1.6 8.0 0.00 0.00 0.00 98 1010.3
20260506035056 24 213 3.2 4.8 0.00 0.00 0.00 98 1010.2
20260506034553 24 59 0.0 9.7 0.00 0.00 0.00 98 1010.1
20260506034050 24 89 6.4 9.7 0.00 0.00 0.00 98 1010.1
20260506033548 24 168 1.6 4.8 0.00 0.00 0.00 99 1010.2
20260506033044 24 39 3.2 8.0 0.00 0.00 0.00 99 1010.1
20260506032542 24 137 1.6 3.2 0.00 0.00 0.00 99 1009.9
20260506032038 24 232 3.2 8.0 0.00 0.00 0.00 99 1010.0
20260506031536 24 218 3.2 9.7 0.00 0.00 0.00 99 1009.9
20260506031033 24 197 3.2 4.8 0.00 0.00 0.00 99 1009.9
20260506030531 24 173 4.8 4.8 0.00 0.00 0.00 99 1009.9
20260506030028 24 103 3.2 8.0 0.00 0.00 0.00 99 1010.1
20260506025525 24 326 1.6 8.0 0.00 0.00 0.00 99 1009.8
20260506025021 24 93 0.0 9.7 0.00 0.00 0.00 99 1009.6
20260506024518 24 42 0.0 8.0 0.00 0.00 0.00 99 1009.5
20260506024014 24 55 1.6 8.0 0.00 0.00 0.00 98 1009.5
20260506023510 24 133 1.6 8.0 0.00 0.00 0.00 98 1009.3
20260506023008 24 197 8.0 9.7 0.00 0.00 0.00 98 1009.1
20260506022506 24 84 4.8 9.7 0.00 0.00 0.00 98 1009.2
20260506022003 24 127 6.4 9.7 0.00 0.00 0.00 98 1009.0
20260506021500 24 86 0.0 3.2 0.00 0.00 0.00 97 1009.0
20260506020957 24 234 4.8 12.9 0.00 0.00 0.00 97 1009.1
20260506020455 25 103 1.6 11.3 0.00 0.00 0.00 97 1009.0
20260506015951 25 98 0.0 4.8 0.00 0.00 0.00 97 1008.9
20260506015449 25 76 4.8 14.5 0.00 0.00 0.00 97 1008.9
20260506014946 25 350 1.6 4.8 0.00 0.00 0.00 97 1008.8
20260506014443 25 216 4.8 4.8 0.00 0.00 0.00 97 1008.7
20260506013939 25 189 4.8 8.0 0.00 0.00 0.00 97 1008.6
20260506013438 25 129 3.2 8.0 0.00 0.00 0.00 97 1008.6
20260506012933 25 108 1.6 11.3 0.00 0.00 0.00 96 1008.6
20260506012430 25 171 4.8 8.0 0.00 0.00 0.00 96 1008.6
20260506011927 25 61 1.6 8.0 0.00 0.00 0.00 96 1008.7
20260506011425 25 99 3.2 12.9 0.00 0.00 0.00 96 1008.7
20260506010921 25 239 3.2 11.3 0.00 0.00 0.00 96 1008.6
20260506010420 25 98 4.8 4.8 0.00 0.00 0.00 96 1008.7
20260506005916 25 164 1.6 4.8 0.00 0.00 0.00 96 1008.6
20260506005414 25 179 4.8 11.3 0.00 0.00 0.00 95 1008.5
20260506004909 25 269 3.2 8.0 0.00 0.00 0.00 95 1008.3
20260506004407 25 181 6.4 12.9 0.00 0.00 0.00 95 1008.5
20260506003903 25 156 3.2 4.8 0.00 0.00 0.00 95 1008.4
20260506003359 25 83 1.6 9.7 0.00 0.00 0.00 95 1008.5
20260506002856 25 174 8.0 11.3 0.00 0.00 0.00 94 1008.3
20260506002352 25 40 3.2 4.8 0.00 0.00 0.00 94 1008.4
20260506001848 25 69 3.2 9.7 0.00 0.00 0.00 94 1008.2
20260506001345 25 121 4.8 8.0 0.00 0.00 0.00 94 1008.2
20260506000842 25 170 4.8 8.0 0.00 0.00 0.00 94 1008.2
20260506000340 25 175 1.6 9.7 0.00 0.00 0.00 94 1008.1
20260505235836 25 122 3.2 8.0 0.00 0.00 0.00 94 1008.4
20260505235334 25 112 3.2 9.7 0.00 0.00 0.00 94 1008.6
20260505234830 25 15 1.6 9.7 0.00 0.00 0.00 93 1008.6
20260505234329 25 73 1.6 9.7 0.00 0.00 0.00 93 1008.3
20260505233825 25 182 4.8 8.0 0.00 0.00 0.00 92 1008.2
20260505233323 25 114 8.0 12.9 0.00 0.00 0.00 92 1008.2
20260505232820 25 142 4.8 11.3 0.00 0.00 0.00 92 1008.2
20260505232318 25 96 1.6 9.7 0.00 0.00 0.00 92 1008.0
20260505231814 26 208 3.2 4.8 0.00 0.00 0.00 92 1008.4
20260505231312 26 132 3.2 20.9 0.00 0.00 0.00 92 1008.1
20260505230810 26 265 8.0 17.7 0.00 0.00 0.00 92 1008.3
20260505230307 26 336 1.6 4.8 0.00 0.00 0.00 91 1008.4
20260505225803 26 185 3.2 11.3 0.00 0.00 0.00 91 1008.3
20260505225301 26 175 4.8 8.0 0.00 0.00 0.00 90 1008.3
20260505224755 26 166 6.4 16.1 0.00 0.00 0.00 90 1008.3
20260505224254 26 95 4.8 16.1 0.00 0.00 0.00 90 1008.3
20260505223751 26 167 8.0 11.3 0.00 0.00 0.00 89 1008.2
20260505223247 26 175 1.6 14.5 0.00 0.00 0.00 90 1008.3
20260505222743 26 164 6.4 16.1 0.00 0.00 0.00 90 1008.3
20260505222240 26 86 8.0 12.9 0.00 0.00 0.00 89 1008.4
20260505221737 26 170 3.2 12.9 0.00 0.00 0.00 90 1008.6
20260505221233 26 81 6.4 9.7 0.00 0.00 0.00 89 1008.5
20260505220730 26 209 11.3 16.1 0.00 0.00 0.00 89 1008.5
20260505220228 26 240 4.8 11.3 0.00 0.00 0.00 89 1008.4
20260505215726 26 100 3.2 14.5 0.00 0.00 0.00 89 1008.5
20260505215223 26 201 3.2 8.0 0.00 0.00 0.00 89 1008.5
20260505214721 26 158 8.0 11.3 0.00 0.00 0.00 88 1008.5
20260505214218 26 205 3.2 4.8 0.00 0.00 0.00 88 1008.6
20260505213715 26 133 3.2 8.0 0.00 0.00 0.00 88 1008.6
20260505213212 27 216 4.8 9.7 0.00 0.00 0.00 88 1008.6
20260505212708 27 123 4.8 8.0 0.00 0.00 0.00 88 1008.4
20260505212206 27 301 4.8 9.7 0.00 0.00 0.00 87 1008.7
20260505211702 27 292 1.6 11.3 0.00 0.00 0.00 87 1008.8
20260505211200 27 134 1.6 8.0 0.00 0.00 0.00 86 1008.8
20260505210656 27 326 3.2 14.5 0.00 0.00 0.00 87 1008.6
20260505210153 27 194 4.8 9.7 0.00 0.00 0.00 87 1008.9
20260505205651 27 189 9.7 12.9 0.00 0.00 0.00 87 1008.7
20260505205149 27 48 1.6 4.8 0.00 0.00 0.00 87 1009.0
20260505204645 26 176 3.2 9.7 0.00 0.00 0.00 88 1008.9
20260505204143 26 84 3.2 11.3 0.00 0.00 0.00 88 1009.1
20260505203640 26 178 6.4 12.9 0.00 0.00 0.00 88 1009.1
20260505203137 27 41 1.6 16.1 0.00 0.00 0.00 87 1009.3
20260505202632 27 168 3.2 8.0 0.00 0.00 0.00 88 1009.4
20260505202128 27 63 4.8 14.5 0.00 0.00 0.00 87 1009.4
20260505201625 27 203 8.0 12.9 0.00 0.00 0.00 86 1009.2
20260505201123 27 346 1.6 9.7 0.00 0.00 0.00 87 1009.2
20260505200621 26 144 3.2 16.1 0.00 0.00 0.00 88 1009.5
20260505200118 27 196 8.0 14.5 0.00 0.00 0.00 88 1009.3
20260505195614 26 192 9.7 12.9 0.00 0.00 0.00 89 1009.4
20260505195111 26 222 4.8 12.9 0.00 0.00 0.00 90 1009.5
20260505194608 26 227 3.2 9.7 0.00 0.00 0.00 91 1009.6
20260505194104 26 220 1.6 11.3 0.00 0.00 0.00 91 1009.8
20260505193601 26 207 3.2 12.9 0.00 0.00 0.00 90 1009.8
20260505193058 26 235 6.4 11.3 0.00 0.00 0.00 90 1009.7
20260505192557 26 305 1.6 3.2 0.00 0.00 0.00 91 1009.7
20260505192054 25 204 3.2 17.7 0.00 0.00 0.00 92 1009.8
20260505191552 25 154 6.4 11.3 0.00 0.00 0.00 93 1009.9
20260505191050 25 188 4.8 8.0 0.00 0.00 0.00 94 1010.0
20260505190544 25 208 6.4 9.7 0.00 0.00 0.00 94 1010.1
20260505190040 25 256 3.2 3.2 0.00 0.00 0.00 95 1010.1
20260505185537 25 94 1.6 4.8 0.00 0.00 0.00 94 1010.2
20260505185034 25 164 4.8 9.7 0.00 0.00 0.00 93 1010.3
20260505184531 25 267 4.8 9.7 0.00 0.00 0.00 92 1010.4
20260505184027 26 194 4.8 12.9 0.00 0.00 0.00 90 1010.3
20260505183524 26 102 1.6 4.8 0.00 0.00 0.00 89 1010.2
20260505183022 26 182 1.6 9.7 0.00 0.00 0.00 89 1010.2
20260505182518 26 351 1.6 8.0 0.00 0.00 0.00 89 1010.2
20260505182015 26 7 0.0 9.7 0.00 0.00 0.00 89 1010.4
20260505181511 26 170 9.7 16.1 0.00 0.00 0.00 88 1010.1
20260505181009 26 203 14.5 20.9 0.00 0.00 0.00 87 1010.1
20260505180504 26 89 4.8 9.7 0.00 0.00 0.00 88 1010.2
20260505180003 26 146 4.8 12.9 0.00 0.00 0.00 87 1010.1
20260505175457 26 197 6.4 11.3 0.00 0.00 0.00 87 1010.2
20260505174954 26 116 1.6 4.8 0.00 0.00 0.00 87 1010.2
20260505174451 26 272 6.4 9.7 0.00 0.00 0.00 88 1010.3
20260505173947 26 246 6.4 11.3 0.00 0.00 0.00 88 1010.4
20260505173444 26 24 8.0 12.9 0.00 0.00 0.00 88 1010.3
20260505172941 26 74 3.2 9.7 0.00 0.00 0.00 89 1010.3
20260505172439 26 188 6.4 9.7 0.00 0.00 0.00 88 1010.3
20260505171938 26 332 8.0 11.3 0.00 0.00 0.00 89 1010.5
20260505171436 26 83 8.0 11.3 0.00 0.00 0.00 88 1010.5
20260505170932 26 36 1.6 4.8 0.00 0.00 0.00 89 1010.4
20260505170429 26 145 3.2 4.8 0.00 0.00 0.00 88 1010.6
20260505165924 26 256 9.7 14.5 0.00 0.00 0.00 88 1010.5
20260505165421 25 87 3.2 12.9 0.00 0.00 0.00 89 1010.6
20260505164916 25 354 3.2 8.0 0.00 0.00 0.00 89 1010.4
20260505164413 25 72 1.6 8.0 0.00 0.00 0.00 89 1010.6
20260505163911 25 145 1.6 8.0 0.00 0.00 0.00 90 1010.7
20260505163410 25 281 6.4 11.3 0.00 0.00 0.00 90 1010.6
20260505162908 25 118 1.6 8.0 0.00 0.00 0.00 90 1010.8
20260505162403 25 295 1.6 9.7 0.00 0.00 0.00 90 1010.7
20260505161901 25 244 6.4 11.3 0.00 0.00 0.00 90 1010.6
20260505161357 25 161 4.8 11.3 0.00 0.00 0.00 90 1010.3
20260505160855 25 176 6.4 11.3 0.00 0.00 0.00 89 1010.7
20260505160353 25 173 4.8 9.7 0.00 0.00 0.00 90 1010.6
20260505153332 25 37 3.2 12.9 0.00 0.00 0.00 89 1010.2
20260505152828 25 233 8.0 14.5 0.00 0.00 0.00 89 1010.2
20260505152325 25 83 1.6 14.5 0.00 0.00 0.00 89 1010.2
20260505151820 25 31 3.2 11.3 0.00 0.00 0.00 89 1010.3
20260505151317 25 64 1.6 11.3 0.00 0.00 0.00 89 1010.4
20260505150814 25 179 11.3 17.7 0.00 0.00 0.00 88 1010.4
20260505150311 25 192 6.4 11.3 0.00 0.00 0.00 89 1010.3
20260505140235 24 152 8.0 17.7 0.00 0.00 0.00 92 1010.1
20260505130159 23 72 0.0 4.8 0.00 0.00 0.00 95 1010.2
20260505124649 22 238 1.6 8.0 0.00 0.00 0.00 96 1010.0
20260505124145 22 80 1.6 3.2 0.00 0.00 0.00 96 1009.9
20260505123641 22 39 3.2 4.8 0.00 0.00 0.00 96 1009.9
20260505123138 22 124 1.6 8.0 0.00 0.00 0.00 96 1009.9
20260505122634 22 199 1.6 3.2 0.00 0.00 0.00 96 1009.9
20260505122132 22 76 3.2 3.2 0.00 0.00 0.00 96 1010.0
20260505121629 22 355 3.2 9.7 0.00 0.00 0.00 96 1009.8
20260505121126 22 52 0.0 1.6 0.00 0.00 0.00 96 1009.8
20260505120621 22 88 1.6 3.2 0.00 0.00 0.00 96 1009.9
20260505120117 22 59 0.0 9.7 0.00 0.00 0.00 96 1009.8
20260505115612 22 114 4.8 8.0 0.00 0.00 0.00 96 1009.6
20260505115110 22 96 0.0 4.8 0.00 0.00 0.00 95 1009.7
20260505114606 22 203 4.8 9.7 0.00 0.00 0.00 95 1009.7
20260505114103 22 181 0.0 1.6 0.00 0.00 0.00 95 1009.7
20260505113559 22 172 6.4 8.0 0.00 0.00 0.00 95 1009.6
20260505113056 22 86 1.6 8.0 0.00 0.00 0.00 95 1009.8
20260505112552 22 160 1.6 3.2 0.00 0.00 0.00 95 1009.5
20260505112050 22 244 3.2 3.2 0.00 0.00 0.00 95 1009.5
20260505111544 22 102 1.6 4.8 0.00 0.00 0.00 94 1009.6
20260505111040 22 125 1.6 9.7 0.00 0.00 0.00 94 1009.5